[[{"header":{"parameterUnit":"m.s-1","parameterCategory":1,"la1":30.2991,"la2":30.254,"lo1":-89.0895,"lo2":-89.0444,"dy":0.0017,"dx":0.0017,"nx":28,"ny":28,"refTime":"2024-02-08T09:00:00:Z","depth":0,"parameterNumber":2,"parameterNumberName":"U-component_of_WINDS"},"data":[0,0,0,0,0,0,0,0,0,0,0,0,0,0,0,0,0,0,0,0,0,0,0,0,0,0,0,0,0,0,0,0,0,0,0,0,0,0,0,0,0,0,0,0,0,0,0,0,0,0,0,0,0,0,0,0,0,0,-2.2233,-2.2234,0,-2.2313,-2.2314,-2.2315,-2.2322,-2.2322,-2.2321,-2.232,-2.2401,-2.2404,-2.2407,0,0,0,0,0,0,0,0,0,0,0,0,0,-2.2083,-2.2085,-2.2233,-2.2234,-2.2235,-2.2313,-2.2314,-2.2316,-2.2323,-2.2321,-2.232,-2.2319,-2.24,-2.2404,-2.2407,0,0,0,0,0,0,0,0,0,0,0,0,0,-2.2154,-2.2086,-2.2232,-2.2248,-2.225,-2.2313,-2.2314,-2.2316,-2.2323,-2.2321,-2.232,-2.2319,-2.2399,-2.2403,-2.2408,-2.2461,0,0,-2.2421,-2.2423,0,0,0,0,0,0,0,0,-2.215,-2.2159,-2.2244,-2.2247,-2.2249,-2.2307,-2.2291,-2.2364,-2.2323,-2.2295,-2.232,-2.2318,-2.237,-2.2377,-2.2395,-2.2464,-2.2468,-2.2421,-2.2424,-2.2426,-2.2427,0,0,0,0,0,0,0,-2.2145,-2.2156,-2.2265,-2.2246,-2.2249,-2.225,-2.2259,-2.2305,-2.2339,-2.2297,-2.2298,-2.2308,-2.2372,-2.2391,-2.2397,-2.2469,-2.2421,-2.2425,-2.2428,-2.243,-2.2585,-2.2586,0,0,0,0,0,0,-2.2137,-2.2152,-2.2262,-2.2267,-2.2195,-2.2254,-2.2263,-2.2289,-2.2338,-2.2345,-2.2309,-2.2308,-2.2384,-2.2392,-2.24,-2.2464,-2.2426,-2.243,-2.2433,-2.2584,-2.2585,-2.2587,0,0,0,0,0,0,-2.2134,-2.2147,-2.2259,-2.221,-2.2224,-2.2258,-2.2287,-2.2292,-2.2311,-2.2347,-2.2353,-2.2322,-2.2383,-2.2394,-2.2445,-2.2467,-2.2432,-2.2436,-2.2582,-2.2584,-2.2586,-2.2594,0,0,0,0,0,0,-2.213,-2.2146,-2.2167,-2.221,-2.2227,-2.2303,-2.2288,-2.2294,-2.2319,-2.2318,-2.2361,-2.2367,-2.2383,-2.2439,-2.245,-2.2473,-2.244,-2.258,-2.2583,-2.2586,-2.2592,-2.2596,-2.26,0,0,0,0,0,-2.2124,-2.2166,-2.2168,-2.2181,-2.2253,-2.2305,-2.2314,-2.2332,-2.2321,-2.2341,-2.2365,-2.2366,-2.2464,-2.2444,-2.2457,-2.2481,-2.2579,-2.2582,-2.2585,-2.259,-2.2596,-2.26,0,0,0,0,0,0,-2.2124,-2.2172,-2.2175,-2.2231,-2.2264,-2.2306,-2.2333,-2.2337,-2.2373,-2.2371,-2.2391,-2.2401,-2.2451,-2.2472,-2.2449,-2.2535,-2.252,-2.2526,-2.2519,-2.2525,-2.2529,-2.2522,-2.2443,0,0,0,0,0,-2.213,-2.2168,-2.2208,-2.2254,-2.227,-2.2299,-2.2322,-2.2333,-2.2367,-2.2381,-2.2408,-2.244,-2.2478,-2.2503,-2.254,-2.2596,-2.2604,-2.2619,-2.2623,-2.2626,-2.263,-2.266,-2.2667,-2.2598,-2.2598,-2.2598,0,0,-2.2144,-2.2175,-2.2197,-2.2255,-2.2281,-2.2319,-2.231,-2.2351,-2.2379,-2.2387,-2.2437,-2.2458,-2.2496,-2.2549,-2.2574,-2.2568,-2.2651,-2.263,-2.2632,-2.2635,-2.2664,-2.2671,-2.2676,-2.26,-2.26,-2.2599,0,0,-2.2188,-2.2216,-2.2257,-2.2283,-2.2324,-2.2343,-2.2352,-2.2394,-2.2408,-2.2459,-2.2465,-2.2499,-2.2564,-2.2591,-2.2613,-2.2667,-2.2669,-2.2678,-2.2699,-2.2728,-2.2733,-2.2738,-2.2756,-2.2762,-2.2683,-2.2683,-2.2683,0,-2.2199,-2.2258,-2.2277,-2.2318,-2.2342,-2.2351,-2.2392,-2.2418,-2.2468,-2.2484,-2.2477,-2.2558,-2.2585,-2.2644,-2.2657,-2.2675,-2.2686,-2.2673,-2.2731,-2.2736,-2.2741,-2.2758,-2.2765,-2.2684,-2.2684,-2.2684,-2.2684,0,-2.2269,-2.2309,-2.2338,-2.2386,-2.2414,-2.2455,-2.248,-2.2506,-2.2515,-2.2534,-2.2585,-2.2617,-2.266,-2.2675,-2.2684,-2.2736,-2.2731,-2.2727,-2.2712,-2.2748,-2.2764,-2.2771,-2.2685,-2.2685,-2.2685,-2.2684,0,0,-2.2314,-2.2373,-2.2383,-2.2405,-2.245,-2.2481,-2.2522,-2.2565,-2.2586,-2.2621,-2.2655,-2.271,-2.2707,-2.2732,-2.2744,-2.2769,-2.2809,-2.2762,-2.2763,-2.2769,-2.2866,-2.2868,-2.2875,-2.2811,-2.2812,-2.2813,-2.2863,0,-2.2362,-2.2436,-2.2454,-2.2516,-2.2553,-2.2563,-2.2598,-2.2629,-2.2649,-2.2682,-2.2703,-2.2742,-2.2735,-2.275,-2.2776,-2.2798,-2.2828,-2.2795,-2.2841,-2.2843,-2.283,-2.2884,-2.2886,-2.2931,-2.2869,-2.287,-2.2871,0,-2.2428,-2.2464,-2.253,-2.257,-2.2586,-2.2618,-2.2658,-2.2691,-2.2726,-2.2738,-2.2766,-2.2776,-2.2818,-2.2802,-2.286,-2.2837,-2.2857,-2.2871,-2.2873,-2.2877,-2.2858,-2.2888,-2.2946,-2.2952,-2.2882,-2.2881,-2.288,0,-2.2452,-2.2517,-2.2565,-2.2584,-2.2632,-2.2654,-2.2675,-2.2709,-2.2734,-2.2769,-2.2785,-2.2825,-2.2846,-2.2876,-2.2895,-2.2882,-2.2951,-2.2937,-2.2961,-2.2961,-2.2974,-2.2973,-2.3035,-2.299,-2.299,-2.2989,-2.2989,0,-2.2503,-2.2543,-2.2577,-2.2606,-2.265,-2.2671,-2.2715,-2.2736,-2.2766,-2.2799,-2.281,-2.284,-2.2865,-2.2899,-2.2915,-2.2959,-2.2969,-2.2979,-2.2983,-2.2978,-2.2976,-2.299,-2.2987,-2.2991,-2.2991,-2.299,-2.299,0,-2.2537,-2.2562,-2.2614,-2.2656,-2.2667,-2.2698,-2.2733,-2.2762,-2.2781,-2.2823,-2.2834,-2.2864,-2.2904,-2.2927,-2.2978,-2.2988,-2.3038,-2.304,-2.3026,-2.3027,-2.3049,-2.3046,-2.3121,-2.3131,-2.3081,-2.3081,-2.3081,0,-2.2567,-2.2598,-2.2643,-2.2666,-2.2688,-2.2725,-2.275,-2.2772,-2.2797,-2.284,-2.2863,-2.2904,-2.2937,-2.3001,-2.3027,-2.3066,-2.3068,-2.3092,-2.3074,-2.3068,-2.3067,-2.3064,-2.3067,-2.3094,-2.3095,-2.3095,-2.3096,0,-2.2618,-2.2628,-2.2664,-2.2704,-2.2734,-2.2767,-2.2799,-2.2817,-2.2844,-2.2872,-2.2913,-2.294,-2.2991,-2.3031,-2.3072,-2.3093,-2.3098,-2.3101,-2.3109,-2.3103,-2.3092,-2.3097,-2.3032,-2.3099,-2.3099,-2.3098,-2.3098,-2.3098,-2.265,-2.2678,-2.2713,-2.2753,-2.2779,-2.2809,-2.2838,-2.2861,-2.2896,-2.294,-2.2951,-2.2994,-2.3028,-2.3084,-2.3106,-2.3139,-2.3135,-2.3146,-2.3148,-2.315,-2.315,-2.3088,-2.3147,-2.3147,-2.3147,-2.3147,-2.3147,0,-2.27,-2.2724,-2.276,-2.2804,-2.2835,-2.2839,-2.2875,-2.29,-2.2938,-2.297,-2.3003,-2.305,-2.3089,-2.3118,-2.3158,-2.3179,-2.3182,-2.3189,-2.3186,-2.3191,-2.3153,-2.3142,-2.3185,-2.3185,-2.3185,-2.3185,-2.3185,-2.3185,-2.2729,-2.2776,-2.279,-2.285,-2.2873,-2.2916,-2.2936,-2.2963,-2.2988,-2.3041,-2.3073,-2.3092,-2.3123,-2.3165,-2.32,-2.3208,-2.3221,-2.3227,-2.3235,-2.3198,-2.3194,-2.319,-2.3179,-2.323,-2.323,-2.327,-2.327,-2.3271]},{"header":{"parameterUnit":"m.s-1","parameterCategory":1,"la1":30.2991,"la2":30.254,"lo1":-89.0895,"lo2":-89.0444,"dy":0.0017,"dx":0.0017,"nx":28,"ny":28,"refTime":"2024-02-08T09:00:00:Z","depth":0,"parameterNumber":3,"parameterNumberName":"V-component_of_WINDS"},"data":[0,0,0,0,0,0,0,0,0,0,0,0,0,0,0,0,0,0,0,0,0,0,0,0,0,0,0,0,0,0,0,0,0,0,0,0,0,0,0,0,0,0,0,0,0,0,0,0,0,0,0,0,0,0,0,0,0,0,1.7971,1.7973,0,1.8204,1.8207,1.821,1.8318,1.8318,1.8318,1.8318,1.8563,1.8569,1.8576,0,0,0,0,0,0,0,0,0,0,0,0,0,1.7624,1.763,1.797,1.7973,1.7976,1.8204,1.8207,1.821,1.8318,1.8318,1.8318,1.8318,1.856,1.8568,1.8576,0,0,0,0,0,0,0,0,0,0,0,0,0,1.7808,1.7632,1.797,1.8057,1.8068,1.8203,1.8207,1.8211,1.8318,1.8318,1.8318,1.8318,1.8558,1.8567,1.8577,1.8645,0,0,1.8608,1.8612,0,0,0,0,0,0,0,0,1.7797,1.782,1.8042,1.8052,1.8063,1.8232,1.8175,1.8357,1.8318,1.8223,1.8318,1.8317,1.8453,1.8472,1.8516,1.8657,1.8667,1.8609,1.8615,1.8619,1.8622,0,0,0,0,0,0,0,1.7784,1.7811,1.8063,1.8045,1.8058,1.8087,1.8113,1.821,1.8337,1.8232,1.824,1.8266,1.8459,1.8506,1.8523,1.8671,1.8609,1.8618,1.8624,1.8628,1.8882,1.8883,0,0,0,0,0,0,1.7757,1.78,1.8056,1.807,1.7927,1.8094,1.8123,1.8178,1.8336,1.836,1.8266,1.827,1.8489,1.8511,1.8532,1.8624,1.8619,1.8629,1.8634,1.8882,1.8882,1.8883,0,0,0,0,0,0,1.7749,1.7778,1.8046,1.7937,1.7974,1.81,1.8161,1.8183,1.823,1.8362,1.8386,1.8291,1.849,1.8518,1.8617,1.8634,1.8633,1.8642,1.8881,1.8882,1.8883,1.8807,0,0,0,0,0,0,1.7738,1.7775,1.78,1.7937,1.7979,1.8125,1.8162,1.8188,1.8247,1.8254,1.8392,1.8414,1.8492,1.8601,1.8627,1.8648,1.865,1.888,1.8881,1.8882,1.8809,1.8806,1.8803,0,0,0,0,0,1.7726,1.777,1.7801,1.7831,1.8013,1.8125,1.815,1.8237,1.8247,1.8276,1.8361,1.841,1.8628,1.861,1.864,1.8664,1.8879,1.8881,1.8882,1.881,1.8806,1.8803,0,0,0,0,0,0,1.7633,1.7789,1.7825,1.7915,1.8006,1.8143,1.8181,1.8229,1.832,1.8324,1.843,1.846,1.855,1.8617,1.8595,1.874,1.8758,1.8766,1.8693,1.869,1.8687,1.867,1.8659,0,0,0,0,0,1.7623,1.7699,1.7832,1.7899,1.7942,1.8053,1.8106,1.8165,1.8264,1.8304,1.8396,1.8492,1.8583,1.864,1.8731,1.8819,1.8852,1.8851,1.8848,1.8845,1.885,1.8905,1.8907,1.8889,1.8889,1.8889,0,0,1.7603,1.7698,1.774,1.7882,1.796,1.8039,1.8085,1.8166,1.8227,1.8317,1.8416,1.8487,1.8602,1.8696,1.8742,1.8755,1.8863,1.8847,1.8843,1.8851,1.8907,1.8909,1.891,1.889,1.889,1.8889,0,0,1.7608,1.7685,1.7751,1.7827,1.7944,1.8018,1.8033,1.8164,1.8215,1.8315,1.8385,1.846,1.8613,1.8692,1.8753,1.8789,1.8839,1.8816,1.8801,1.8854,1.8855,1.8857,1.8873,1.8877,1.8821,1.8821,1.8821,0,1.7569,1.7688,1.7778,1.7856,1.7918,1.8002,1.807,1.8141,1.8281,1.8324,1.8335,1.8531,1.8613,1.8729,1.8738,1.8783,1.8807,1.8801,1.8847,1.885,1.8853,1.8869,1.8875,1.8818,1.8818,1.8818,1.8819,0,1.7636,1.7719,1.7758,1.789,1.7957,1.8029,1.8132,1.8189,1.8243,1.8317,1.842,1.8523,1.8636,1.8668,1.8722,1.8793,1.8797,1.8826,1.8847,1.885,1.8867,1.8874,1.8813,1.8814,1.8815,1.8816,0,0,1.7589,1.7771,1.7784,1.7846,1.7981,1.8048,1.8126,1.8236,1.8284,1.8379,1.8448,1.8577,1.8605,1.8674,1.8738,1.8783,1.8809,1.8808,1.8812,1.8806,1.8897,1.8875,1.8881,1.8842,1.8844,1.8845,1.8888,0,1.7614,1.7755,1.7839,1.7947,1.8026,1.8107,1.8176,1.8267,1.8338,1.8418,1.8498,1.8588,1.8617,1.866,1.8708,1.8795,1.8829,1.8793,1.8912,1.8915,1.8881,1.8889,1.8866,1.8902,1.8895,1.8896,1.8897,0,1.7661,1.7753,1.7868,1.7997,1.8033,1.8093,1.8202,1.8276,1.8383,1.8432,1.8509,1.8573,1.8661,1.8674,1.8799,1.8772,1.8826,1.8876,1.888,1.8896,1.8907,1.8907,1.8915,1.8921,1.8908,1.8907,1.8907,0,1.7618,1.777,1.786,1.791,1.8062,1.8102,1.8168,1.8275,1.8336,1.8432,1.8474,1.8579,1.8637,1.8719,1.8811,1.8811,1.8928,1.8947,1.8974,1.8972,1.8996,1.8993,1.9014,1.9027,1.9027,1.9027,1.9026,0,1.7638,1.7705,1.7843,1.7897,1.7977,1.8074,1.8151,1.8224,1.8318,1.8391,1.8469,1.8536,1.8652,1.8735,1.8808,1.8902,1.8927,1.8971,1.899,1.8966,1.896,1.9003,1.9004,1.9028,1.9028,1.9028,1.9027,0,1.7603,1.7697,1.78,1.7935,1.7971,1.8024,1.8141,1.82,1.8275,1.8366,1.8394,1.8513,1.8614,1.8714,1.885,1.8899,1.8994,1.9018,1.8957,1.8968,1.8989,1.8987,1.904,1.9053,1.9054,1.9054,1.9054,0,1.761,1.7664,1.7805,1.7858,1.7922,1.8007,1.807,1.8169,1.8232,1.836,1.8403,1.851,1.8601,1.8759,1.886,1.8966,1.8994,1.9006,1.9011,1.8985,1.8998,1.8994,1.9001,1.9003,1.9003,1.9002,1.9002,0,1.7613,1.7658,1.7744,1.7849,1.7922,1.8009,1.8099,1.8139,1.8256,1.8324,1.8427,1.8497,1.8637,1.8743,1.8861,1.8932,1.8988,1.8999,1.9012,1.8988,1.8951,1.8973,1.8951,1.8998,1.8998,1.8999,1.8999,1.8999,1.7602,1.7654,1.7762,1.7857,1.7935,1.8018,1.808,1.8163,1.8251,1.8371,1.8425,1.853,1.864,1.8803,1.8873,1.8959,1.8973,1.899,1.8995,1.8998,1.8993,1.8935,1.8981,1.8981,1.8981,1.8981,1.8982,0,1.7611,1.7684,1.7771,1.7894,1.797,1.8014,1.8117,1.8178,1.8269,1.8365,1.8453,1.8574,1.8678,1.8787,1.8898,1.8946,1.8974,1.8972,1.897,1.8986,1.8973,1.8953,1.8947,1.8947,1.8947,1.8947,1.8947,1.8947,1.7624,1.7717,1.7774,1.7907,1.7982,1.8084,1.8139,1.8218,1.8295,1.8426,1.8512,1.8582,1.8685,1.8804,1.8903,1.8932,1.8971,1.8961,1.8998,1.8984,1.8987,1.8989,1.897,1.8968,1.8968,1.9005,1.9005,1.9005]}]]